Location: Oshawa
(43.9000°N, 78.8670°W)
Time: 15:18:05
(UTC-04:00)

Cosmos 1805 Rocket - Visible Passes

Search period start: 24 April 2014 00:00
Search period end: 04 May 2014 00:00
Orbit: 609 x 631 km, 82.5° (Epoch: 23 April)

Date Brightness Start Highest point End Pass type
(mag) Time Alt. Az. Time Alt. Az. Time Alt. Az.
24 Apr 4.6 04:05:22 21° SSE 04:07:57 44° E 04:12:11 10° NNE visible
24 Apr 5.2 05:43:03 10° WSW 05:46:05 18° WNW 05:49:09 10° NNW visible
25 Apr 3.6 04:23:14 28° S 04:25:33 84° E 04:30:01 10° N visible
26 Apr 6.1 03:03:52 11° ESE 03:05:52 15° E 03:08:19 10° NE visible
26 Apr 3.8 04:41:04 27° SW 04:43:15 52° WNW 04:47:37 10° N visible
27 Apr 5.4 03:21:41 21° ESE 03:23:17 26° E 03:26:59 10° NNE visible
27 Apr 4.6 04:58:52 19° WSW 05:01:04 29° WNW 05:04:57 10° NNW visible
28 Apr 4.3 03:39:27 36° SE 03:40:47 48° E 03:45:05 10° NNE visible
28 Apr 5.3 05:16:38 12° WSW 05:18:59 17° WNW 05:21:52 10° NNW visible
29 Apr 3.5 03:57:12 49° S 03:58:24 90° W 04:02:53 10° N visible
30 Apr 5.9 02:37:45 15° E 02:38:40 16° E 02:41:22 10° NE visible
30 Apr 3.9 04:14:55 38° WSW 04:16:07 48° WNW 04:20:27 10° N visible
01 May 5.1 02:55:27 27° ESE 02:56:05 28° E 02:59:55 10° NNE visible
01 May 4.8 04:32:38 23° WSW 04:33:56 27° WNW 04:37:44 10° NNW visible
02 May 4.1 03:13:08 50° ESE 03:13:37 53° E 03:17:58 10° NNE visible
02 May 5.4 04:50:19 13° W 04:51:51 16° WNW 04:54:33 10° NNW visible
03 May 3.4 03:30:48 72° SSW 03:31:14 83° W 03:35:43 10° N visible
